Home   Weather   Turaif   Past weeks

Flag for Saudi Arabia Past Weather in Turaif, Saudi Arabia — Yesterday and Last 2 Weeks

Now
39 °F

Clear.


Feels Like: 36 °F
Forecast: 45 / 62 °F
Wind: 5 mph from East

Location: Turaif

Current Time: Dec 4, 2016 at 5:12:02 am

Latest Report: Dec 4, 2016 at 4:00 am


Visibility: 10 mi

Pressure: 30.30 "Hg (27.36 "Hg at 827m altitude)

Humidity: 93%

Dew Point: 37 °F

Location of TuraifLocation

Past Weather in Turaif — Graph

°F

Turaif Temperature Yesterday

Maximum temperature yesterday: 61 °F (at 3:00 pm)
Minimum temperature yesterday: 43 °F (at 11:00 pm)
Average temperature yesterday: 52 °F

High & Low Weather Summary for the Past Weeks

 TemperatureHumidityPressure
High72 °F (Nov 20, 2:00 pm)100% (Nov 30, 6:00 am)30.33 "Hg (Nov 30, 6:00 am)
Low25 °F (Nov 25, 7:00 am)9% (Nov 24, 1:00 pm)29.77 "Hg (Dec 1, 4:00 pm)
Average50 °F44%30.12 "Hg
* Reported Nov 19 4:00 am — Dec 4 4:00 am, Turaif, Weather by CustomWeather, © 2016

Note: Actual official high and low records may vary slightly from our data, if they occured in-between our weather recording intervals... More about our weather records

Advertising

Turaif Weather History for the Previous 24 Hours

Scroll right to see more
 ConditionsComfort  
Time TempWeatherWind HumidityBarometerVisibility
4:00 am
Sun, Dec 4
39 °FClear.5 mph93%30.30 "Hg10 mi
3:00 am39 °FClear.5 mph93%30.30 "Hg10 mi
2:00 am41 °FClear.5 mph87%30.30 "Hg10 mi
1:00 am43 °FClear.5 mph81%30.30 "Hg10 mi
12:00 am43 °FClear.5 mph81%30.33 "Hg10 mi
11:00 pm
Sat, Dec 3
43 °FClear.5 mph81%30.33 "Hg10 mi
10:00 pm48 °FPassing clouds.9 mph71%30.33 "HgN/A
9:00 pm50 °FPassing clouds.5 mph71%30.33 "HgN/A
8:00 pm52 °FPassing clouds.5 mph67%30.33 "HgN/A
7:00 pm54 °FPassing clouds.5 mph67%30.30 "HgN/A
6:00 pm55 °FPartly sunny.7 mph63%30.30 "HgN/A
5:00 pm57 °FPartly sunny.12 mph63%30.27 "HgN/A
4:00 pm59 °FPartly sunny.12 mph59%30.27 "HgN/A
3:00 pm61 °FPartly sunny.9 mph55%30.27 "HgN/A
2:00 pm59 °FPartly sunny.7 mph59%30.27 "HgN/A
1:00 pm59 °FPartly sunny.12 mph59%30.30 "HgN/A
12:00 pm55 °FScattered clouds.9 mph72%30.33 "HgN/A
11:00 am55 °FScattered clouds.7 mph72%30.33 "HgN/A
10:00 am54 °FPassing clouds.7 mph77%30.33 "HgN/A
9:00 am50 °FPassing clouds.9 mph88%30.30 "HgN/A
8:00 am48 °FPassing clouds.7 mph87%30.30 "HgN/A
7:00 am46 °FPassing clouds.9 mph100%30.24 "HgN/A
6:00 am46 °FPassing clouds.7 mph93%30.21 "HgN/A
5:00 am46 °FPassing clouds.7 mph93%30.21 "HgN/A
Weather by CustomWeather, © 2016

See weather overviewHow to use our weather pages